| time (UTC) | temp F | wind direction | speed knots | gust knots | rain 1hr in | rain 24hr in | rain mn in | humidity % | barometer mb |
| 20260905203102 | 100 | 93 | 7.0 | 10.4 | 0.00 | 0.00 | 0.00 | 38 | 1010.2 |
| 20260905202557 | 101 | 75 | 3.5 | 7.0 | 0.00 | 0.00 | 0.00 | 38 | 1010.1 |
| 20260905202052 | 100 | 85 | 5.2 | 11.3 | 0.00 | 0.00 | 0.00 | 38 | 1010.2 |
| 20260905201600 | 100 | 90 | 6.1 | 11.3 | 0.00 | 0.00 | 0.00 | 39 | 1010.2 |
| 20260905201053 | 101 | 77 | 4.3 | 10.4 | 0.00 | 0.00 | 0.00 | 38 | 1010.3 |
| 20260905200554 | 101 | 328 | 5.2 | 10.4 | 0.00 | 0.00 | 0.00 | 37 | 1010.4 |
| 20260905195555 | 99 | 27 | 3.5 | 7.0 | 0.00 | 0.00 | 0.00 | 38 | 1010.8 |
| 20260905195053 | 98 | 60 | 3.5 | 8.7 | 0.00 | 0.00 | 0.00 | 40 | 1010.9 |
| 20260905194603 | 99 | 75 | 4.3 | 8.7 | 0.00 | 0.00 | 0.00 | 40 | 1011.0 |
| 20260905194054 | 100 | 119 | 4.3 | 8.7 | 0.00 | 0.00 | 0.00 | 39 | 1011.1 |
| 20260905193553 | 101 | 210 | 1.7 | 8.7 | 0.00 | 0.00 | 0.00 | 40 | 1011.2 |
| 20260905193104 | 100 | 62 | 2.6 | 8.7 | 0.00 | 0.00 | 0.00 | 39 | 1011.2 |
| 20260905192553 | 99 | 338 | 4.3 | 8.7 | 0.00 | 0.00 | 0.00 | 40 | 1011.2 |
| 20260905192056 | 101 | 332 | 4.3 | 7.8 | 0.00 | 0.00 | 0.00 | 39 | 1011.2 |
| 20260905191601 | 101 | 84 | 3.5 | 7.8 | 0.00 | 0.00 | 0.00 | 39 | 1011.2 |
| 20260905191052 | 101 | 349 | 4.3 | 7.8 | 0.00 | 0.00 | 0.00 | 38 | 1011.5 |
| 20260905190600 | 100 | 131 | 2.6 | 9.6 | 0.00 | 0.00 | 0.00 | 40 | 1011.5 |
| 20260905190104 | 101 | 288 | 0.9 | 9.6 | 0.00 | 0.00 | 0.00 | 39 | 1011.5 |
| 20260905185558 | 100 | 27 | 2.6 | 9.6 | 0.00 | 0.00 | 0.00 | 39 | 1011.8 |
| 20260905185053 | 100 | 130 | 3.5 | 13.0 | 0.00 | 0.00 | 0.00 | 41 | 1011.7 |
| 20260905184611 | 100 | 352 | 5.2 | 13.0 | 0.00 | 0.00 | 0.00 | 40 | 1011.8 |
| 20260905184053 | 99 | 31 | 7.0 | 13.0 | 0.00 | 0.00 | 0.00 | 40 | 1012.1 |
| 20260905183553 | 99 | 1 | 1.7 | 6.1 | 0.00 | 0.00 | 0.00 | 40 | 1012.1 |
| 20260905183119 | 99 | 245 | 2.6 | 8.7 | 0.00 | 0.00 | 0.00 | 42 | 1012.0 |
| 20260905182553 | 98 | 31 | 3.5 | 8.7 | 0.00 | 0.00 | 0.00 | 42 | 1012.2 |
| 20260905182052 | 96 | 55 | 3.5 | 7.0 | 0.00 | 0.00 | 0.00 | 45 | 1012.2 |
| 20260905181602 | 98 | 76 | 3.5 | 11.3 | 0.00 | 0.00 | 0.00 | 42 | 1012.3 |
| 20260905181053 | 99 | 86 | 3.5 | 11.3 | 0.00 | 0.00 | 0.00 | 41 | 1012.4 |
| 20260905180557 | 99 | 284 | 2.6 | 9.6 | 0.00 | 0.00 | 0.00 | 42 | 1012.5 |
| 20260905175554 | 99 | 351 | 2.6 | 8.7 | 0.00 | 0.00 | 0.00 | 42 | 1012.6 |
| 20260905175054 | 98 | 6 | 0.9 | 9.6 | 0.00 | 0.00 | 0.00 | 42 | 1012.7 |
| 20260905174605 | 98 | 15 | 3.5 | 9.6 | 0.00 | 0.00 | 0.00 | 41 | 1012.7 |
| 20260905174053 | 100 | 325 | 3.5 | 7.0 | 0.00 | 0.00 | 0.00 | 40 | 1012.7 |
| 20260905173552 | 99 | 319 | 2.6 | 9.6 | 0.00 | 0.00 | 0.00 | 42 | 1012.8 |
| 20260905173100 | 98 | 92 | 4.3 | 9.6 | 0.00 | 0.00 | 0.00 | 41 | 1012.8 |
| 20260905172555 | 98 | 249 | 1.7 | 9.6 | 0.00 | 0.00 | 0.00 | 44 | 1012.9 |
| 20260905172055 | 97 | 0 | 3.5 | 8.7 | 0.00 | 0.00 | 0.00 | 44 | 1012.9 |
| 20260905171557 | 98 | 324 | 2.6 | 8.7 | 0.00 | 0.00 | 0.00 | 43 | 1012.9 |
| 20260905171053 | 97 | 59 | 3.5 | 8.7 | 0.00 | 0.00 | 0.00 | 43 | 1013.0 |
| 20260905170553 | 97 | 296 | 1.7 | 9.6 | 0.00 | 0.00 | 0.00 | 45 | 1013.0 |
| 20260905165552 | 96 | 72 | 5.2 | 9.6 | 0.00 | 0.00 | 0.00 | 45 | 1013.3 |
| 20260905165052 | 96 | 354 | 2.6 | 9.6 | 0.00 | 0.00 | 0.00 | 44 | 1013.4 |
| 20260905164602 | 96 | 355 | 3.5 | 9.6 | 0.00 | 0.00 | 0.00 | 44 | 1013.4 |
| 20260905164054 | 96 | 321 | 2.6 | 6.1 | 0.00 | 0.00 | 0.00 | 44 | 1013.5 |
| 20260905163555 | 97 | 348 | 2.6 | 7.8 | 0.00 | 0.00 | 0.00 | 44 | 1013.5 |
| 20260905163058 | 96 | 95 | 0.9 | 8.7 | 0.00 | 0.00 | 0.00 | 46 | 1013.5 |
| 20260905162556 | 96 | 2 | 3.5 | 8.7 | 0.00 | 0.00 | 0.00 | 46 | 1013.6 |
| 20260905162053 | 95 | 304 | 3.5 | 8.7 | 0.00 | 0.00 | 0.00 | 48 | 1013.5 |
| 20260905161608 | 95 | 330 | 2.6 | 8.7 | 0.00 | 0.00 | 0.00 | 48 | 1013.6 |
| 20260905161053 | 94 | 333 | 5.2 | 7.8 | 0.00 | 0.00 | 0.00 | 48 | 1013.6 |
| 20260905160555 | 94 | 352 | 2.6 | 7.8 | 0.00 | 0.00 | 0.00 | 49 | 1013.6 |
| 20260905160104 | 94 | 311 | 5.2 | 10.4 | 0.00 | 0.00 | 0.00 | 50 | 1013.7 |
| 20260905155554 | 93 | 353 | 4.3 | 10.4 | 0.00 | 0.00 | 0.00 | 51 | 1013.5 |
| 20260905155057 | 93 | 355 | 3.5 | 7.8 | 0.00 | 0.00 | 0.00 | 51 | 1013.8 |
| 20260905154559 | 93 | 319 | 3.5 | 8.7 | 0.00 | 0.00 | 0.00 | 53 | 1013.7 |
| 20260905154054 | 92 | 307 | 3.5 | 8.7 | 0.00 | 0.00 | 0.00 | 53 | 1013.7 |
| 20260905153553 | 92 | 302 | 3.5 | 10.4 | 0.00 | 0.00 | 0.00 | 53 | 1013.8 |
| 20260905153116 | 92 | 355 | 4.3 | 10.4 | 0.00 | 0.00 | 0.00 | 53 | 1013.7 |
| 20260905152553 | 92 | 327 | 3.5 | 10.4 | 0.00 | 0.00 | 0.00 | 53 | 1013.7 |
| 20260905152052 | 91 | 312 | 3.5 | 7.8 | 0.00 | 0.00 | 0.00 | 55 | 1013.8 |
| 20260905151608 | 91 | 313 | 3.5 | 10.4 | 0.00 | 0.00 | 0.00 | 55 | 1013.7 |
| 20260905151053 | 90 | 302 | 3.5 | 10.4 | 0.00 | 0.00 | 0.00 | 56 | 1013.8 |
| 20260905150557 | 90 | 323 | 6.1 | 10.4 | 0.00 | 0.00 | 0.00 | 57 | 1013.8 |
| 20260905150103 | 90 | 295 | 5.2 | 10.4 | 0.00 | 0.00 | 0.00 | 57 | 1013.7 |
| 20260905145555 | 89 | 290 | 4.3 | 9.6 | 0.00 | 0.00 | 0.00 | 59 | 1013.7 |
| 20260905145055 | 89 | 311 | 7.0 | 10.4 | 0.00 | 0.00 | 0.00 | 59 | 1013.7 |
| 20260905144558 | 89 | 276 | 7.0 | 11.3 | 0.00 | 0.00 | 0.00 | 59 | 1013.7 |
| 20260905144058 | 88 | 269 | 7.0 | 13.0 | 0.00 | 0.00 | 0.00 | 59 | 1013.9 |
| 20260905143553 | 88 | 302 | 7.8 | 13.0 | 0.00 | 0.00 | 0.00 | 58 | 1013.7 |
| 20260905143105 | 88 | 286 | 7.8 | 12.2 | 0.00 | 0.00 | 0.00 | 59 | 1013.7 |
| 20260905142552 | 88 | 309 | 7.8 | 12.2 | 0.00 | 0.00 | 0.00 | 60 | 1013.8 |
| 20260905142055 | 87 | 317 | 7.8 | 12.2 | 0.00 | 0.00 | 0.00 | 60 | 1013.7 |
| 20260905141607 | 87 | 297 | 7.0 | 10.4 | 0.00 | 0.00 | 0.00 | 63 | 1013.8 |
| 20260905141133 | 86 | 333 | 5.2 | 10.4 | 0.00 | 0.00 | 0.00 | 63 | 1013.6 |
| 20260905140557 | 86 | 317 | 5.2 | 7.8 | 0.00 | 0.00 | 0.00 | 66 | 1013.8 |
| 20260905140109 | 86 | 320 | 6.1 | 7.8 | 0.00 | 0.00 | 0.00 | 66 | 1013.7 |
| 20260905135556 | 85 | 274 | 5.2 | 7.8 | 0.00 | 0.00 | 0.00 | 67 | 1013.8 |
| 20260905135053 | 85 | 338 | 4.3 | 9.6 | 0.00 | 0.00 | 0.00 | 68 | 1013.8 |
| 20260905134602 | 84 | 301 | 6.1 | 9.6 | 0.00 | 0.00 | 0.00 | 68 | 1013.8 |
| 20260905134055 | 84 | 323 | 6.1 | 9.6 | 0.00 | 0.00 | 0.00 | 68 | 1013.8 |
| 20260905133553 | 84 | 285 | 4.3 | 7.0 | 0.00 | 0.00 | 0.00 | 70 | 1013.7 |
| 20260905133100 | 83 | 294 | 4.3 | 6.1 | 0.00 | 0.00 | 0.00 | 73 | 1013.8 |
| 20260905132555 | 82 | 321 | 2.6 | 4.3 | 0.00 | 0.00 | 0.00 | 74 | 1013.8 |
| 20260905132057 | 82 | 307 | 1.7 | 4.3 | 0.00 | 0.00 | 0.00 | 76 | 1013.8 |
| 20260905131614 | 81 | 295 | 1.7 | 3.5 | 0.00 | 0.00 | 0.00 | 79 | 1013.7 |
| 20260905131054 | 81 | 333 | 1.7 | 3.5 | 0.00 | 0.00 | 0.00 | 80 | 1013.6 |
| 20260905130559 | 80 | 321 | 1.7 | 3.5 | 0.00 | 0.00 | 0.00 | 82 | 1013.7 |
| 20260905130105 | 80 | 318 | 0.9 | 3.5 | 0.00 | 0.00 | 0.00 | 82 | 1013.6 |
| 20260905125555 | 79 | 330 | 1.7 | 3.5 | 0.00 | 0.00 | 0.00 | 82 | 1013.6 |
| 20260905125055 | 79 | 316 | 0.9 | 1.7 | 0.00 | 0.00 | 0.00 | 84 | 1013.6 |
| 20260905124600 | 79 | 0 | 0.0 | 0.9 | 0.00 | 0.00 | 0.00 | 84 | 1013.7 |
| 20260905124055 | 79 | 0 | 0.0 | 0.0 | 0.00 | 0.00 | 0.00 | 84 | 1013.6 |
| 20260905123555 | 78 | 0 | 0.0 | 0.0 | 0.00 | 0.00 | 0.00 | 86 | 1013.9 |
| 20260905123101 | 77 | 0 | 0.0 | 0.9 | 0.00 | 0.00 | 0.00 | 87 | 1013.8 |
| 20260905122555 | 76 | 0 | 0.0 | 0.9 | 0.00 | 0.00 | 0.00 | 88 | 1013.8 |
| 20260905122055 | 76 | 0 | 0.0 | 0.9 | 0.00 | 0.00 | 0.00 | 89 | 1013.8 |
| 20260905121848 | 76 | 0 | 0.0 | 1.7 | 0.00 | 0.00 | 0.00 | 89 | 1013.8 |
| 20260905121339 | 75 | 0 | 0.9 | 2.6 | 0.00 | 0.00 | 0.00 | 90 | 1013.7 |
| 20260905120559 | 75 | 217 | 1.7 | 2.6 | 0.00 | 0.00 | 0.00 | 89 | 1013.7 |
| 20260905120105 | 76 | 235 | 2.6 | 2.6 | 0.00 | 0.00 | 0.00 | 89 | 1013.8 |
| 20260905115601 | 76 | 239 | 2.6 | 2.6 | 0.00 | 0.00 | 0.00 | 89 | 1013.6 |
| 20260905115059 | 76 | 255 | 0.9 | 1.7 | 0.00 | 0.00 | 0.00 | 89 | 1013.5 |
| 20260905114602 | 75 | 283 | 0.9 | 1.7 | 0.00 | 0.00 | 0.00 | 90 | 1013.4 |
| 20260905114058 | 75 | 285 | 0.0 | 1.7 | 0.00 | 0.00 | 0.00 | 91 | 1013.4 |
| 20260905113601 | 74 | 223 | 0.0 | 1.7 | 0.00 | 0.00 | 0.00 | 92 | 1013.4 |
| 20260905113101 | 74 | 215 | 0.9 | 1.7 | 0.00 | 0.00 | 0.00 | 91 | 1013.4 |
| 20260905112558 | 75 | 202 | 1.7 | 1.7 | 0.00 | 0.00 | 0.00 | 91 | 1013.2 |
| 20260905112101 | 74 | 191 | 1.7 | 1.7 | 0.00 | 0.00 | 0.00 | 92 | 1013.1 |
| 20260905112043 | 74 | 176 | 1.7 | 1.7 | 0.00 | 0.00 | 0.00 | 91 | 1013.2 |
| 20260905111058 | 74 | 169 | 0.9 | 1.7 | 0.00 | 0.00 | 0.00 | 90 | 1013.3 |
| 20260905110558 | 75 | 180 | 0.9 | 0.9 | 0.00 | 0.00 | 0.00 | 91 | 1013.3 |
| 20260905103916 | 75 | 233 | 0.9 | 1.7 | 0.00 | 0.00 | 0.00 | 90 | 1013.0 |
| 20260905102554 | 75 | 230 | 0.9 | 0.9 | 0.00 | 0.00 | 0.00 | 90 | 1013.1 |
| 20260905102054 | 75 | 236 | 0.9 | 2.6 | 0.00 | 0.00 | 0.00 | 90 | 1013.1 |
| 20260905101601 | 75 | 216 | 0.9 | 2.6 | 0.00 | 0.00 | 0.00 | 90 | 1013.1 |
| 20260905101053 | 75 | 210 | 2.6 | 2.6 | 0.00 | 0.00 | 0.00 | 89 | 1013.1 |
| 20260905100553 | 76 | 223 | 1.7 | 2.6 | 0.00 | 0.00 | 0.00 | 89 | 1013.3 |
| 20260905100121 | 76 | 0 | 0.0 | 0.0 | 0.00 | 0.00 | 0.00 | 89 | 1013.2 |
| 20260905095555 | 76 | 0 | 0.0 | 0.0 | 0.00 | 0.00 | 0.00 | 89 | 1013.2 |
| 20260905095052 | 75 | 0 | 0.0 | 0.0 | 0.00 | 0.00 | 0.00 | 89 | 1013.1 |
| 20260905094600 | 75 | 0 | 0.0 | 0.0 | 0.00 | 0.00 | 0.00 | 89 | 1013.3 |
| 20260905094057 | 75 | 0 | 0.0 | 0.0 | 0.00 | 0.00 | 0.00 | 89 | 1013.3 |
| 20260905093558 | 76 | 0 | 0.0 | 0.0 | 0.00 | 0.00 | 0.00 | 89 | 1013.2 |
| 20260905093100 | 76 | 0 | 0.0 | 0.0 | 0.00 | 0.00 | 0.00 | 89 | 1013.2 |
| 20260905092559 | 76 | 0 | 0.0 | 0.0 | 0.00 | 0.00 | 0.00 | 89 | 1013.2 |
| 20260905092058 | 76 | 0 | 0.0 | 0.0 | 0.00 | 0.00 | 0.00 | 89 | 1013.1 |
| 20260905091601 | 76 | 0 | 0.0 | 0.0 | 0.00 | 0.00 | 0.00 | 88 | 1013.1 |
| 20260905091058 | 76 | 0 | 0.0 | 0.9 | 0.00 | 0.00 | 0.00 | 88 | 1013.0 |
| 20260905090559 | 75 | 0 | 0.0 | 1.7 | 0.00 | 0.00 | 0.00 | 88 | 1013.0 |
| 20260905090136 | 76 | 238 | 0.9 | 1.7 | 0.00 | 0.00 | 0.00 | 88 | 1013.1 |
| 20260905085558 | 76 | 238 | 0.9 | 1.7 | 0.00 | 0.00 | 0.00 | 88 | 1013.2 |
| 20260905085100 | 76 | 255 | 0.0 | 1.7 | 0.00 | 0.00 | 0.00 | 88 | 1013.1 |
| 20260905084559 | 76 | 221 | 1.7 | 1.7 | 0.00 | 0.00 | 0.00 | 89 | 1013.2 |
| 20260905084057 | 76 | 221 | 0.9 | 1.7 | 0.00 | 0.00 | 0.00 | 88 | 1013.1 |
| 20260905083557 | 76 | 215 | 1.7 | 2.6 | 0.00 | 0.00 | 0.00 | 88 | 1013.1 |
| 20260905083058 | 76 | 212 | 0.9 | 2.6 | 0.00 | 0.00 | 0.00 | 88 | 1013.1 |
| 20260905082558 | 76 | 179 | 2.6 | 2.6 | 0.00 | 0.00 | 0.00 | 88 | 1013.0 |
| 20260905082058 | 76 | 169 | 0.0 | 1.7 | 0.00 | 0.00 | 0.00 | 88 | 1012.9 |
| 20260905081604 | 76 | 221 | 0.9 | 1.7 | 0.00 | 0.00 | 0.00 | 88 | 1012.9 |
| 20260905081058 | 76 | 227 | 1.7 | 3.5 | 0.00 | 0.00 | 0.00 | 88 | 1012.9 |
| 20260905080558 | 76 | 237 | 1.7 | 3.5 | 0.00 | 0.00 | 0.00 | 87 | 1012.9 |
| 20260905080106 | 77 | 215 | 2.6 | 3.5 | 0.00 | 0.00 | 0.00 | 87 | 1012.9 |
| 20260905075558 | 77 | 251 | 0.9 | 1.7 | 0.00 | 0.00 | 0.00 | 87 | 1012.9 |
| 20260905075058 | 77 | 239 | 1.7 | 1.7 | 0.00 | 0.00 | 0.00 | 87 | 1012.9 |
| 20260905074608 | 77 | 231 | 1.7 | 1.7 | 0.00 | 0.00 | 0.00 | 87 | 1012.9 |
| 20260905074059 | 77 | 227 | 0.9 | 1.7 | 0.00 | 0.00 | 0.00 | 87 | 1012.8 |
| 20260905073559 | 77 | 0 | 0.0 | 0.9 | 0.00 | 0.00 | 0.00 | 86 | 1012.9 |
| 20260905073107 | 77 | 0 | 0.0 | 0.9 | 0.00 | 0.00 | 0.00 | 86 | 1012.9 |
| 20260905072559 | 77 | 0 | 0.0 | 0.9 | 0.00 | 0.00 | 0.00 | 86 | 1013.0 |
| 20260905072057 | 77 | 0 | 0.0 | 0.9 | 0.00 | 0.00 | 0.00 | 86 | 1013.0 |
| 20260905071602 | 77 | 0 | 0.0 | 1.7 | 0.00 | 0.00 | 0.00 | 86 | 1012.9 |
| 20260905071057 | 77 | 150 | 0.9 | 1.7 | 0.00 | 0.00 | 0.00 | 86 | 1012.8 |
| 20260905070557 | 77 | 165 | 0.9 | 2.6 | 0.00 | 0.00 | 0.00 | 85 | 1013.1 |
| 20260905065558 | 77 | 162 | 2.6 | 3.5 | 0.00 | 0.00 | 0.00 | 86 | 1012.9 |
| 20260905065057 | 77 | 165 | 3.5 | 3.5 | 0.00 | 0.00 | 0.00 | 85 | 1013.0 |
| 20260905064603 | 77 | 159 | 1.7 | 3.5 | 0.00 | 0.00 | 0.00 | 85 | 1013.0 |
| 20260905064058 | 77 | 150 | 2.6 | 3.5 | 0.00 | 0.00 | 0.00 | 85 | 1012.9 |
| 20260905063557 | 77 | 138 | 1.7 | 2.6 | 0.00 | 0.00 | 0.00 | 85 | 1013.0 |
| 20260905063226 | 77 | 151 | 1.7 | 2.6 | 0.00 | 0.00 | 0.00 | 85 | 1012.8 |
| 20260905063054 | 78 | 136 | 2.6 | 2.6 | 0.00 | 0.00 | 0.00 | 85 | 1012.9 |
| 20260905062051 | 78 | 150 | 1.7 | 3.5 | 0.00 | 0.00 | 0.00 | 84 | 1012.8 |
| 20260905061559 | 77 | 156 | 2.6 | 4.3 | 0.00 | 0.00 | 0.00 | 85 | 1012.7 |
| 20260905061053 | 77 | 153 | 2.6 | 4.3 | 0.00 | 0.00 | 0.00 | 84 | 1012.8 |
| 20260905060554 | 77 | 148 | 3.5 | 4.3 | 0.00 | 0.00 | 0.00 | 83 | 1012.9 |
| 20260905060106 | 78 | 149 | 3.5 | 3.5 | 0.00 | 0.00 | 0.00 | 82 | 1012.7 |
| 20260905055554 | 79 | 146 | 1.7 | 2.6 | 0.00 | 0.00 | 0.00 | 81 | 1012.8 |
| 20260905055055 | 79 | 146 | 0.0 | 1.7 | 0.00 | 0.00 | 0.00 | 80 | 1012.6 |
| 20260905054557 | 79 | 0 | 0.0 | 0.0 | 0.00 | 0.00 | 0.00 | 80 | 1012.7 |
| 20260905054051 | 79 | 0 | 0.0 | 0.0 | 0.00 | 0.00 | 0.00 | 80 | 1012.5 |
| 20260905053552 | 79 | 0 | 0.0 | 0.0 | 0.00 | 0.00 | 0.00 | 80 | 1012.7 |
| 20260905053102 | 79 | 0 | 0.0 | 0.0 | 0.00 | 0.00 | 0.00 | 80 | 1012.6 |
| 20260905052551 | 79 | 0 | 0.0 | 0.0 | 0.00 | 0.00 | 0.00 | 80 | 1012.5 |
| 20260905052055 | 79 | 0 | 0.0 | 0.0 | 0.00 | 0.00 | 0.00 | 80 | 1012.4 |
| 20260905051746 | 79 | 0 | 0.0 | 0.0 | 0.00 | 0.00 | 0.00 | 80 | 1012.4 |
| 20260905051600 | 79 | 0 | 0.0 | 0.0 | 0.00 | 0.00 | 0.00 | 80 | 1012.4 |
| 20260905051152 | 79 | 0 | 0.0 | 0.0 | 0.00 | 0.00 | 0.00 | 80 | 1012.5 |
| 20260905050552 | 79 | 0 | 0.0 | 0.0 | 0.00 | 0.00 | 0.00 | 80 | 1012.6 |
| 20260905050109 | 80 | 0 | 0.0 | 0.0 | 0.00 | 0.00 | 0.00 | 79 | 1012.7 |
| 20260905045552 | 80 | 0 | 0.0 | 0.0 | 0.00 | 0.00 | 0.00 | 79 | 1012.7 |
| 20260905045052 | 80 | 0 | 0.0 | 0.0 | 0.00 | 0.00 | 0.00 | 79 | 1012.6 |
| 20260905044559 | 80 | 0 | 0.0 | 0.0 | 0.00 | 0.00 | 0.00 | 78 | 1012.7 |
| 20260905044054 | 80 | 0 | 0.0 | 0.0 | 0.00 | 0.00 | 0.00 | 79 | 1012.7 |
| 20260905043555 | 80 | 0 | 0.0 | 0.0 | 0.00 | 0.00 | 0.00 | 80 | 1012.6 |
| 20260905043103 | 80 | 0 | 0.0 | 0.0 | 0.00 | 0.00 | 0.00 | 80 | 1012.6 |
| 20260905042551 | 80 | 0 | 0.0 | 0.0 | 0.00 | 0.00 | 0.00 | 79 | 1012.7 |
| 20260905042051 | 80 | 0 | 0.0 | 0.0 | 0.00 | 0.00 | 0.00 | 79 | 1012.7 |
| 20260905041602 | 80 | 0 | 0.0 | 0.9 | 0.00 | 0.00 | 0.00 | 79 | 1012.6 |
| 20260905041054 | 80 | 0 | 0.0 | 0.9 | 0.00 | 0.00 | 0.00 | 79 | 1012.6 |
| 20260905040554 | 80 | 0 | 0.0 | 0.9 | 0.00 | 0.00 | 0.00 | 78 | 1012.5 |
| 20260905035555 | 81 | 0 | 0.0 | 0.0 | 0.00 | 0.00 | 0.00 | 76 | 1012.7 |
| 20260905035054 | 81 | 0 | 0.0 | 0.0 | 0.00 | 0.00 | 0.00 | 76 | 1012.8 |
| 20260905034601 | 81 | 0 | 0.0 | 0.0 | 0.00 | 0.00 | 0.00 | 75 | 1012.8 |
| 20260905034055 | 81 | 0 | 0.0 | 0.0 | 0.00 | 0.00 | 0.00 | 75 | 1012.7 |
| 20260905033554 | 82 | 0 | 0.0 | 0.0 | 0.00 | 0.00 | 0.00 | 74 | 1012.7 |
| 20260905033105 | 81 | 0 | 0.0 | 0.0 | 0.00 | 0.00 | 0.00 | 74 | 1012.6 |
| 20260905032554 | 81 | 0 | 0.0 | 0.0 | 0.00 | 0.00 | 0.00 | 75 | 1012.8 |
| 20260905032054 | 81 | 0 | 0.0 | 0.0 | 0.00 | 0.00 | 0.00 | 75 | 1012.8 |
| 20260905031614 | 81 | 0 | 0.0 | 0.0 | 0.00 | 0.00 | 0.00 | 75 | 1012.9 |
| 20260905031058 | 81 | 0 | 0.0 | 0.0 | 0.00 | 0.00 | 0.00 | 75 | 1012.8 |
| 20260905030555 | 81 | 0 | 0.0 | 0.0 | 0.00 | 0.00 | 0.00 | 74 | 1012.7 |
| 20260905030056 | 81 | 0 | 0.0 | 0.9 | 0.00 | 0.00 | 0.00 | 74 | 1012.8 |
| 20260905025554 | 82 | 0 | 0.0 | 2.6 | 0.00 | 0.00 | 0.00 | 73 | 1012.8 |
| 20260905025124 | 82 | 155 | 0.9 | 2.6 | 0.00 | 0.00 | 0.00 | 74 | 1012.8 |
| 20260905024601 | 82 | 141 | 1.7 | 2.6 | 0.00 | 0.00 | 0.00 | 74 | 1012.8 |
| 20260905024056 | 81 | 140 | 1.7 | 2.6 | 0.00 | 0.00 | 0.00 | 74 | 1012.7 |
| 20260905023553 | 81 | 153 | 1.7 | 2.6 | 0.00 | 0.00 | 0.00 | 74 | 1012.6 |
| 20260905023101 | 81 | 0 | 0.0 | 0.0 | 0.00 | 0.00 | 0.00 | 74 | 1012.9 |
| 20260905022553 | 82 | 0 | 0.0 | 0.0 | 0.00 | 0.00 | 0.00 | 73 | 1012.9 |
| 20260905022056 | 82 | 0 | 0.0 | 0.0 | 0.00 | 0.00 | 0.00 | 72 | 1012.8 |
| 20260905021600 | 82 | 0 | 0.0 | 0.0 | 0.00 | 0.00 | 0.00 | 72 | 1012.8 |
| 20260905021059 | 82 | 0 | 0.0 | 0.0 | 0.00 | 0.00 | 0.00 | 72 | 1012.7 |
| 20260905020557 | 82 | 0 | 0.0 | 0.0 | 0.00 | 0.00 | 0.00 | 71 | 1012.7 |
| 20260905015553 | 82 | 0 | 0.0 | 0.0 | 0.00 | 0.00 | 0.00 | 71 | 1012.5 |
| 20260905015054 | 83 | 0 | 0.0 | 0.0 | 0.00 | 0.00 | 0.00 | 71 | 1012.5 |
| 20260905014559 | 83 | 0 | 0.0 | 0.0 | 0.00 | 0.00 | 0.00 | 71 | 1012.5 |
| 20260905014056 | 83 | 0 | 0.0 | 0.0 | 0.00 | 0.00 | 0.00 | 71 | 1012.4 |
| 20260905013557 | 82 | 0 | 0.0 | 0.0 | 0.00 | 0.00 | 0.00 | 71 | 1012.4 |
| 20260905013105 | 83 | 0 | 0.0 | 0.0 | 0.00 | 0.00 | 0.00 | 70 | 1012.4 |
| 20260905012555 | 83 | 0 | 0.0 | 0.0 | 0.00 | 0.00 | 0.00 | 70 | 1012.4 |
| 20260905012054 | 83 | 0 | 0.0 | 1.7 | 0.00 | 0.00 | 0.00 | 70 | 1012.3 |
| 20260905011606 | 83 | 0 | 0.0 | 2.6 | 0.00 | 0.00 | 0.00 | 69 | 1012.4 |
| 20260905011100 | 83 | 309 | 0.9 | 4.3 | 0.00 | 0.00 | 0.00 | 69 | 1012.4 |
| 20260905010557 | 83 | 162 | 2.6 | 4.3 | 0.00 | 0.00 | 0.00 | 69 | 1012.3 |
| 20260905010110 | 84 | 160 | 2.6 | 4.3 | 0.00 | 0.00 | 0.00 | 68 | 1012.4 |
| 20260905005556 | 85 | 143 | 2.6 | 5.2 | 0.00 | 0.00 | 0.00 | 66 | 1012.4 |
| 20260905005053 | 85 | 194 | 4.3 | 5.2 | 0.00 | 0.00 | 0.00 | 65 | 1012.5 |
| 20260905004603 | 85 | 180 | 3.5 | 4.3 | 0.00 | 0.00 | 0.00 | 64 | 1012.3 |
| 20260905004056 | 86 | 169 | 1.7 | 3.5 | 0.00 | 0.00 | 0.00 | 64 | 1012.4 |
| 20260905003558 | 86 | 185 | 1.7 | 2.6 | 0.00 | 0.00 | 0.00 | 64 | 1012.4 |
| 20260905003100 | 86 | 157 | 0.9 | 3.5 | 0.00 | 0.00 | 0.00 | 63 | 1012.7 |
| 20260905002552 | 87 | 0 | 0.0 | 3.5 | 0.00 | 0.00 | 0.00 | 63 | 1012.5 |
| 20260905002057 | 87 | 134 | 2.6 | 3.5 | 0.00 | 0.00 | 0.00 | 62 | 1012.6 |
| 20260905001611 | 88 | 173 | 1.7 | 3.5 | 0.00 | 0.00 | 0.00 | 61 | 1012.5 |
| 20260905001056 | 88 | 150 | 1.7 | 5.2 | 0.00 | 0.00 | 0.00 | 61 | 1012.5 |
| 20260905000557 | 88 | 161 | 3.5 | 5.2 | 0.00 | 0.00 | 0.00 | 60 | 1012.3 |
| 20260905000108 | 89 | 160 | 3.5 | 5.2 | 0.00 | 0.00 | 0.00 | 57 | 1012.3 |
| 20260904235556 | 89 | 213 | 3.5 | 6.1 | 0.00 | 0.00 | 0.00 | 57 | 1012.3 |
| 20260904235054 | 89 | 221 | 4.3 | 6.1 | 0.00 | 0.00 | 0.00 | 57 | 1012.3 |
| 20260904234607 | 88 | 230 | 5.2 | 7.0 | 0.00 | 0.00 | 0.00 | 57 | 1012.3 |
| 20260904234053 | 88 | 228 | 4.3 | 7.8 | 0.00 | 0.00 | 0.00 | 57 | 1012.2 |
| 20260904233554 | 88 | 230 | 6.1 | 10.4 | 0.00 | 0.00 | 0.00 | 58 | 1012.2 |
| 20260904233058 | 88 | 235 | 7.0 | 11.3 | 0.00 | 0.00 | 0.00 | 58 | 1012.2 |
| 20260904232554 | 87 | 243 | 8.7 | 12.2 | 0.00 | 0.00 | 0.00 | 58 | 1012.2 |
| 20260904232053 | 87 | 261 | 8.7 | 12.2 | 0.00 | 0.00 | 0.00 | 58 | 1012.2 |
| 20260904231557 | 87 | 240 | 10.4 | 12.2 | 0.00 | 0.00 | 0.00 | 58 | 1012.2 |
| 20260904231055 | 88 | 252 | 10.4 | 13.0 | 0.00 | 0.00 | 0.00 | 58 | 1012.0 |
| 20260904230554 | 88 | 226 | 9.6 | 16.5 | 0.00 | 0.00 | 0.00 | 57 | 1012.0 |
| 20260904230113 | 89 | 217 | 13.0 | 16.5 | 0.00 | 0.00 | 0.00 | 56 | 1012.1 |
| 20260904225553 | 90 | 218 | 12.2 | 16.5 | 0.00 | 0.00 | 0.00 | 54 | 1012.0 |
| 20260904225053 | 92 | 202 | 10.4 | 16.5 | 0.00 | 0.00 | 0.00 | 52 | 1012.0 |
| 20260904224602 | 93 | 160 | 11.3 | 15.6 | 0.00 | 0.00 | 0.00 | 49 | 1011.7 |
| 20260904224056 | 94 | 169 | 10.4 | 15.6 | 0.00 | 0.00 | 0.00 | 47 | 1011.7 |
| 20260904223555 | 95 | 124 | 8.7 | 15.6 | 0.00 | 0.00 | 0.00 | 44 | 1011.6 |
| 20260904223105 | 96 | 100 | 5.2 | 7.0 | 0.00 | 0.00 | 0.00 | 42 | 1011.4 |
| 20260904222553 | 97 | 110 | 1.7 | 4.3 | 0.00 | 0.00 | 0.00 | 41 | 1011.3 |
| 20260904222054 | 98 | 90 | 1.7 | 4.3 | 0.00 | 0.00 | 0.00 | 38 | 1011.4 |
| 20260904221608 | 98 | 85 | 0.0 | 2.6 | 0.00 | 0.00 | 0.00 | 37 | 1011.4 |
| 20260904221056 | 99 | 96 | 0.0 | 4.3 | 0.00 | 0.00 | 0.00 | 37 | 1011.4 |
| 20260904220554 | 99 | 85 | 0.9 | 6.1 | 0.00 | 0.00 | 0.00 | 37 | 1011.2 |
| 20260904220121 | 99 | 93 | 1.7 | 6.1 | 0.00 | 0.00 | 0.00 | 38 | 1011.2 |
| 20260904215554 | 100 | 80 | 3.5 | 5.2 | 0.00 | 0.00 | 0.00 | 38 | 1011.3 |
| 20260904215053 | 100 | 117 | 3.5 | 5.2 | 0.00 | 0.00 | 0.00 | 38 | 1011.3 |
| 20260904214603 | 100 | 109 | 3.5 | 7.0 | 0.00 | 0.00 | 0.00 | 39 | 1011.2 |
| 20260904214053 | 99 | 124 | 2.6 | 7.0 | 0.00 | 0.00 | 0.00 | 39 | 1011.2 |
| 20260904213553 | 100 | 115 | 3.5 | 7.0 | 0.00 | 0.00 | 0.00 | 37 | 1011.5 |
| 20260904213108 | 100 | 187 | 0.9 | 5.2 | 0.00 | 0.00 | 0.00 | 36 | 1011.5 |
| 20260904212553 | 100 | 37 | 3.5 | 5.2 | 0.00 | 0.00 | 0.00 | 37 | 1011.4 |
| 20260904212054 | 100 | 328 | 0.0 | 4.3 | 0.00 | 0.00 | 0.00 | 38 | 1011.4 |
| 20260904211607 | 99 | 0 | 0.9 | 5.2 | 0.00 | 0.00 | 0.00 | 39 | 1011.6 |
| 20260904211053 | 97 | 319 | 3.5 | 8.7 | 0.00 | 0.00 | 0.00 | 40 | 1011.7 |
| 20260904210556 | 97 | 326 | 2.6 | 8.7 | 0.00 | 0.00 | 0.00 | 41 | 1011.7 |
| 20260904205553 | 97 | 337 | 6.1 | 10.4 | 0.00 | 0.00 | 0.00 | 42 | 1011.5 |
| 20260904205053 | 98 | 323 | 5.2 | 12.2 | 0.00 | 0.00 | 0.00 | 41 | 1011.6 |
| 20260904204606 | 98 | 352 | 3.5 | 12.2 | 0.00 | 0.00 | 0.00 | 40 | 1011.7 |
| 20260904204055 | 99 | 309 | 4.3 | 12.2 | 0.00 | 0.00 | 0.00 | 40 | 1011.8 |
| 20260904203554 | 98 | 6 | 2.6 | 8.7 | 0.00 | 0.00 | 0.00 | 42 | 1011.9 |